This is the latest recevied weather packets stored in our database for station/object SV9TNF-1. If no packets are shown the sender has not sent any weather packets the latest 1 day(s).
| Time | Temp. | Humidity | Pressure | Rain* | Wind** | Luminosity | Snow |
|---|---|---|---|---|---|---|---|
| 1836274803 | 26.67° C | 45% | 1010.4 hPa | - | - | - | - |
| 1836274495 | 26.67° C | 44% | 1010.4 hPa | - | - | - | - |
| 1836274359 | 26.67° C | 45% | 1010.5 hPa | - | - | - | - |
| 1836274186 | 26.67° C | 44% | 1010.5 hPa | - | - | - | - |
| 1836273878 | 26.67° C | 44% | 1010.5 hPa | - | - | - | - |
| 1778031316 | 16.67° C | 37% | 1004.1 hPa | - | 6.71 m/s, 322° | - | - |
| 1778031017 | 16.11° C | 40% | 1004.1 hPa | - | 7.15 m/s, 267° | - | - |
| 1778030716 | 16.67° C | 39% | 1004.1 hPa | - | 7.15 m/s, 326° | - | - |
| 1778030417 | 16.11° C | 42% | 1004.1 hPa | - | 10.28 m/s, 306° | - | - |
| 1778030128 | 16.67° C | 40% | 1004.1 hPa | - | 10.73 m/s, 321° | - | - |
| 1778029816 | 16.11° C | 40% | 1004.1 hPa | - | 12.07 m/s, 328° | - | - |
| 1778029516 | 16.11° C | 42% | 1004.1 hPa | - | 8.49 m/s, 318° | - | - |
| 1778029216 | 16.67° C | 39% | 1004.1 hPa | - | 8.05 m/s, 318° | - | - |
| 1778028916 | 16.67° C | 40% | 1004.1 hPa | - | 6.71 m/s, 310° | - | - |
| 1778028616 | 16.67° C | 39% | 1004.1 hPa | - | 7.15 m/s, 315° | - | - |
| 1778028315 | 16.67° C | 40% | 1004.1 hPa | - | 10.28 m/s, 316° | - | - |
| 1778028016 | 16.67° C | 44% | 1004.1 hPa | - | 10.28 m/s, 345° | - | - |
| 1778027715 | 16.67° C | 43% | 1004.1 hPa | - | 13.41 m/s, 332° | - | - |
| 1778027416 | 16.67° C | 41% | 1004.1 hPa | - | 14.31 m/s, 341° | - | - |
| 1778027115 | 16.67° C | 42% | 1004.1 hPa | - | 14.31 m/s, 350° | - | - |
| 1778026815 | 16.67° C | 40% | 1004.1 hPa | - | 12.07 m/s, 327° | - | - |
| 1778026515 | 17.78° C | 36% | 1004.1 hPa | - | 12.52 m/s, 345° | - | - |
| 1778026215 | 17.78° C | 32% | 1004.1 hPa | - | 6.26 m/s, 313° | - | - |
| 1778025915 | 17.78° C | 33% | 1004.1 hPa | - | 7.15 m/s, 278° | - | - |
| 1778025615 | 17.22° C | 36% | 1004.1 hPa | - | 8.05 m/s, 338° | - | - |
* Rain since midnight (hover to see other rain measurements)
** Current wind speed in m/s (hover to see current wind gust speed)